Valdosta, GA

5:11 AM EDT on October 01, 2016 (GMT -0400)
Moody Air Force Base

Weather History for KVAD - September, 2012

Change the Weather History Date:

Saturday, September 22, 2012

  Actual Average Record
Temperature  
Mean Temperature 76 °F -  
Max Temperature 88 °F 82 °F 91 °F (2010)
Min Temperature 65 °F 66 °F 59 °F (1999)
Cooling Degree Days 12    
Growing Degree Days 26 (Base 50)    
Moisture  
Dew Point 68 °F    
Average Humidity 95    
Maximum Humidity 100    
Minimum Humidity 47    
Precipitation  
Precipitation 0.00 in - - ()
Sea Level Pressure  
Sea Level Pressure 30.03 in    
Wind  
Wind Speed 1 mph (North)    
Max Wind Speed 7 mph    
Max Gust Speed -    
Visibility 3 miles    
Events Fog , Rain    
Averages and records for this station are not official NWS values.
T = Trace of Precipitation, MM = Missing Value Source: NWS Daily Summary

Daily Weather History Graph

Daily Weather History Graph

Search for Another Location

Airport or City:

Trip Planner

Search our weather history database for the weather conditions in past years. The results will help you decide how hot, cold, wet, or windy it might be!

Date:

Astronomy

Sep. 22, 2012 Rise Set
Actual Time 7:21 AM EDT 7:28 PM EDT
Civil Twilight 6:57 AM EDT 7:52 PM EDT
Nautical Twilight 6:29 AM EDT 8:20 PM EDT
Astronomical Twilight 6:00 AM EDT 8:49 PM EDT
Moon 2:15 PM EDT (9/22) No Moon Set
Length of Visible Light 12h 55m
Length of Day
12h 07m
Waxing Crescent, 48% of the Moon is Illuminated
Sep 22
Waxing Crescent
Sep 22
First Quarter
Sep 29
Full
Oct 8
Last Quarter
Oct 15
New

Hourly Weather History & Observations

Time (EDT) Temp. Heat Index Dew Point Humidity Pressure Visibility Wind Dir Wind Speed Gust Speed Precip Events Conditions
12:41 AM 71.6 °F - 69.8 °F 94% 30.02 in 10.0 mi Calm Calm - N/A Rain Light Rain
12:43 AM 71.6 °F - 69.8 °F 94% 30.02 in 10.0 mi Calm Calm - N/A   Clear
12:46 AM 71.6 °F - 69.8 °F 94% 30.02 in 10.0 mi Calm Calm - N/A Rain Light Rain
12:51 AM 71.6 °F - 69.8 °F 94% 30.02 in 10.0 mi Calm Calm - N/A   Clear
12:55 AM 71.2 °F - 70.2 °F 96% 30.02 in 10.0 mi Calm Calm - 0.00 in   Clear
1:55 AM 70.0 °F - 69.8 °F 99% 30.02 in 10.0 mi Calm Calm - N/A   Clear
2:52 AM 69.8 °F - 68.0 °F 94% 30.02 in 5.0 mi Calm Calm - N/A   Clear
2:55 AM 69.1 °F - 68.7 °F 99% 30.02 in 5.0 mi Calm Calm - N/A   Clear
2:56 AM 69.8 °F - 68.0 °F 94% 30.02 in 4.0 mi Calm Calm - N/A   Clear
3:01 AM 69.8 °F - 68.0 °F 94% 30.02 in 2.5 mi Calm Calm - N/A   Clear
3:03 AM 69.8 °F - 68.0 °F 94% 30.02 in 2.5 mi Calm Calm - N/A   Clear
3:05 AM 69.8 °F - 68.0 °F 94% 30.02 in 1.8 mi Calm Calm - N/A   Clear
3:07 AM 69.8 °F - 68.0 °F 94% 30.01 in 1.2 mi Calm Calm - N/A   Clear
3:08 AM 69.8 °F - 68.0 °F 94% 30.01 in 1.0 mi Calm Calm - N/A   Clear
3:10 AM 69.8 °F - 68.0 °F 94% 30.01 in 0.8 mi Calm Calm - N/A   Clear
3:13 AM 69.8 °F - 68.0 °F 94% 30.01 in 0.5 mi Calm Calm - N/A Fog Fog
3:14 AM 69.8 °F - 68.0 °F 94% 30.02 in 0.5 mi Calm Calm - N/A Fog Fog
3:15 AM 69.8 °F - 68.0 °F 94% 30.02 in 0.5 mi Calm Calm - N/A Fog Fog
3:16 AM 69.8 °F - 68.0 °F 94% 30.02 in 0.5 mi Calm Calm - N/A Fog Fog
3:18 AM 69.8 °F - 68.0 °F 94% 30.01 in 0.8 mi Calm Calm - N/A   Clear
3:20 AM 69.8 °F - 68.0 °F 94% 30.02 in 0.8 mi Calm Calm - N/A   Clear
3:21 AM 69.8 °F - 69.8 °F 100% 30.01 in 1.0 mi Calm Calm - N/A   Clear
3:22 AM 69.8 °F - 69.8 °F 100% 30.02 in 1.2 mi Calm Calm - N/A   Clear
3:23 AM 69.8 °F - 69.8 °F 100% 30.01 in 1.5 mi Calm Calm - N/A   Clear
3:24 AM 69.8 °F - 69.8 °F 100% 30.01 in 2.0 mi Calm Calm - N/A   Clear
3:26 AM 69.8 °F - 68.0 °F 94% 30.02 in 3.0 mi Calm Calm - N/A   Clear
3:45 AM 69.8 °F - 68.0 °F 94% 30.01 in 7.0 mi Calm Calm - N/A Rain Light Rain
3:49 AM 69.8 °F - 68.0 °F 94% 30.01 in 5.0 mi Calm Calm - N/A   Light Drizzle
3:53 AM 69.8 °F - 68.0 °F 94% 30.01 in 6.0 mi Calm Calm - N/A   Light Drizzle
3:55 AM 68.7 °F - 68.5 °F 99% 30.01 in 6.0 mi Calm Calm - 0.00 in Rain Light Rain
3:57 AM 68.0 °F - 68.0 °F 100% 30.00 in 6.0 mi Calm Calm - N/A   Clear
4:06 AM 68.0 °F - 68.0 °F 100% 30.01 in 2.5 mi Calm Calm - N/A   Clear
4:08 AM 68.0 °F - 68.0 °F 100% 30.01 in 1.5 mi Calm Calm - N/A   Clear
4:09 AM 68.0 °F - 68.0 °F 100% 30.01 in 1.0 mi Calm Calm - N/A   Clear
4:11 AM 68.0 °F - 68.0 °F 100% 30.01 in 0.8 mi Calm Calm - N/A   Clear
4:12 AM 68.0 °F - 68.0 °F 100% 30.01 in 0.8 mi Calm Calm - N/A   Clear
4:18 AM 68.0 °F - 68.0 °F 100% 30.01 in 1.0 mi Calm Calm - N/A   Clear
4:20 AM 68.0 °F - 68.0 °F 100% 30.01 in 1.2 mi Calm Calm - N/A   Clear
4:22 AM 68.0 °F - 68.0 °F 100% 30.00 in 1.5 mi Calm Calm - N/A   Clear
4:23 AM 68.0 °F - 68.0 °F 100% 30.01 in 1.5 mi Calm Calm - N/A   Clear
4:27 AM 68.0 °F - 68.0 °F 100% 30.00 in 1.2 mi Calm Calm - N/A   Clear
4:33 AM 68.0 °F - 68.0 °F 100% 30.01 in 1.2 mi Calm Calm - N/A   Clear
4:46 AM 68.0 °F - 68.0 °F 100% 30.01 in 1.2 mi Calm Calm - N/A   Clear
4:48 AM 68.0 °F - 68.0 °F 100% 30.01 in 1.5 mi Calm Calm - N/A   Clear
4:55 AM 67.8 °F - 67.6 °F 99% 30.01 in 1.5 mi Calm Calm - 0.00 in   Clear
4:57 AM 68.0 °F - 68.0 °F 100% 30.01 in 1.2 mi Calm Calm - N/A   Clear
4:58 AM 68.0 °F - 68.0 °F 100% 30.01 in 1.0 mi Calm Calm - N/A   Clear
4:59 AM 68.0 °F - 68.0 °F 100% 30.01 in 1.0 mi Calm Calm - N/A   Clear
5:02 AM 68.0 °F - 68.0 °F 100% 30.01 in 0.8 mi Calm Calm - N/A   Clear
5:05 AM 68.0 °F - 66.2 °F 94% 30.01 in 0.8 mi Calm Calm - N/A   Clear
5:07 AM 68.0 °F - 66.2 °F 94% 30.01 in 0.8 mi Calm Calm - N/A   Clear
5:13 AM 66.2 °F - 66.2 °F 100% 30.01 in 1.0 mi Calm Calm - N/A   Clear
5:16 AM 66.2 °F - 66.2 °F 100% 30.01 in 0.8 mi Calm Calm - N/A   Clear
5:17 AM 66.2 °F - 66.2 °F 100% 30.01 in 0.8 mi Calm Calm - N/A   Clear
5:23 AM 66.2 °F - 66.2 °F 100% 30.01 in 0.8 mi Calm Calm - N/A   Clear
5:27 AM 66.2 °F - 66.2 °F 100% 30.01 in 1.0 mi Calm Calm - N/A   Clear
5:32 AM 66.2 °F - 66.2 °F 100% 30.01 in 0.8 mi Calm Calm - N/A   Clear
5:39 AM 66.2 °F - 66.2 °F 100% 30.02 in 1.0 mi North 3.5 mph - N/A   Clear
5:40 AM 66.2 °F - 66.2 °F 100% 30.02 in 1.0 mi North 3.5 mph - N/A   Clear
5:41 AM 66.2 °F - 66.2 °F 100% 30.02 in 1.5 mi North 3.5 mph - N/A   Clear
5:43 AM 66.2 °F - 66.2 °F 100% 30.02 in 2.5 mi NNW 3.5 mph - N/A   Clear
5:44 AM 66.2 °F - 66.2 °F 100% 30.02 in 3.0 mi NNW 3.5 mph - N/A   Clear
5:47 AM 66.2 °F - 66.2 °F 100% 30.02 in 6.0 mi NNW 3.5 mph - N/A   Clear
5:55 AM 65.8 °F - 65.7 °F 99% 30.02 in 10.0 mi North 3.5 mph - N/A   Clear
6:48 AM 66.2 °F - 66.2 °F 100% 30.04 in 2.5 mi North 3.5 mph - N/A   Clear
6:49 AM 66.2 °F - 66.2 °F 100% 30.04 in 1.8 mi North 3.5 mph - N/A   Clear
6:50 AM 66.2 °F - 66.2 °F 100% 30.04 in 1.5 mi North 3.5 mph - N/A   Clear
6:51 AM 66.2 °F - 66.2 °F 100% 30.04 in 1.5 mi North 3.5 mph - N/A   Clear
6:52 AM 66.2 °F - 66.2 °F 100% 30.04 in 1.5 mi North 4.6 mph - N/A   Clear
6:53 AM 66.2 °F - 66.2 °F 100% 30.04 in 1.2 mi North 4.6 mph - N/A   Clear
6:55 AM 66.6 °F - 66.4 °F 99% 30.04 in 1.2 mi Variable 4.6 mph - N/A   Clear
6:57 AM 66.2 °F - 66.2 °F 100% 30.04 in 1.5 mi North 3.5 mph - N/A   Clear
7:04 AM 66.2 °F - 66.2 °F 100% 30.04 in 1.8 mi North 4.6 mph - N/A   Clear
7:05 AM 66.2 °F - 66.2 °F 100% 30.04 in 2.0 mi North 4.6 mph - N/A   Clear
7:06 AM 66.2 °F - 66.2 °F 100% 30.04 in 2.0 mi North 4.6 mph - N/A   Clear
7:09 AM 66.2 °F - 66.2 °F 100% 30.05 in 3.0 mi NNW 3.5 mph - N/A   Clear
7:10 AM 66.2 °F - 66.2 °F 100% 30.05 in 3.0 mi NNW 3.5 mph - N/A   Clear
7:27 AM 66.2 °F - 66.2 °F 100% 30.05 in 2.5 mi North 3.5 mph - N/A   Clear
7:28 AM 66.2 °F - 66.2 °F 100% 30.05 in 1.8 mi North 3.5 mph - N/A   Clear
7:30 AM 66.2 °F - 66.2 °F 100% 30.05 in 1.2 mi North 3.5 mph - N/A   Partly Cloudy
7:31 AM 66.2 °F - 66.2 °F 100% 30.05 in 1.0 mi North 3.5 mph - N/A   Mist
7:37 AM 66.2 °F - 66.2 °F 100% 30.05 in 1.2 mi Calm Calm - N/A   Scattered Clouds
7:38 AM 66.2 °F - 66.2 °F 100% 30.05 in 1.5 mi Calm Calm - N/A   Scattered Clouds
7:39 AM 66.2 °F - 66.2 °F 100% 30.05 in 2.0 mi Calm Calm - N/A   Scattered Clouds
7:41 AM 66.2 °F - 66.2 °F 100% 30.05 in 3.0 mi North 3.5 mph - N/A   Scattered Clouds
7:42 AM 66.2 °F - 66.2 °F 100% 30.05 in 2.5 mi North 3.5 mph - N/A   Scattered Clouds
7:43 AM 66.2 °F - 66.2 °F 100% 30.05 in 1.8 mi North 3.5 mph - N/A   Scattered Clouds
7:45 AM 66.2 °F - 66.2 °F 100% 30.05 in 1.0 mi North 3.5 mph - N/A   Mist
7:47 AM 66.2 °F - 66.2 °F 100% 30.05 in 0.8 mi North 3.5 mph - N/A   Mist
7:49 AM 66.2 °F - 66.2 °F 100% 30.05 in 0.5 mi North 3.5 mph - N/A Fog Fog
7:51 AM 66.2 °F - 66.2 °F 100% 30.06 in 0.5 mi North 3.5 mph - N/A Fog Fog
7:52 AM 66.2 °F - 66.2 °F 100% 30.06 in 0.5 mi North 3.5 mph - N/A Fog Fog
7:53 AM 66.2 °F - 66.2 °F 100% 30.06 in 0.5 mi North 4.6 mph - N/A Fog Fog
7:54 AM 66.2 °F - 66.2 °F 100% 30.06 in 0.8 mi North 4.6 mph - N/A   Mist
7:55 AM 66.7 °F - 66.7 °F 100% 30.06 in 0.8 mi North 4.6 mph - N/A   Mist
7:59 AM 66.2 °F - 66.2 °F 100% 30.06 in 1.0 mi North 4.6 mph - N/A   Mist
8:08 AM 68.0 °F - 68.0 °F 100% 30.06 in 1.2 mi Calm Calm - N/A   Mostly Cloudy
8:10 AM 68.0 °F - 68.0 °F 100% 30.06 in 1.5 mi Calm Calm - N/A   Mostly Cloudy
8:12 AM 68.0 °F - 68.0 °F 100% 30.06 in 2.0 mi Calm Calm - N/A   Mostly Cloudy
8:15 AM 68.0 °F - 68.0 °F 100% 30.06 in 3.0 mi North 3.5 mph - N/A   Mostly Cloudy
8:29 AM 68.0 °F - 68.0 °F 100% 30.06 in 9.0 mi Calm Calm - N/A Rain Light Rain
8:41 AM 68.0 °F - 68.0 °F 100% 30.06 in 5.0 mi Calm Calm - N/A Rain Light Rain
8:47 AM 69.8 °F - 69.8 °F 100% 30.06 in 2.5 mi Calm Calm - N/A   Overcast
8:51 AM 69.8 °F - 69.8 °F 100% 30.06 in 1.8 mi Calm Calm - N/A   Overcast
8:55 AM 69.6 °F - 69.6 °F 100% 30.06 in 1.5 mi Calm Calm - 0.00 in   Overcast
8:59 AM 69.8 °F - 69.8 °F 100% 30.06 in 2.0 mi Calm Calm - N/A   Mostly Cloudy
9:03 AM 69.8 °F - 69.8 °F 100% 30.06 in 3.0 mi Calm Calm - N/A   Mostly Cloudy
9:49 AM 73.4 °F - 73.4 °F 100% 30.06 in 10.0 mi Calm Calm - N/A   Scattered Clouds
9:55 AM 73.4 °F - 73.4 °F 100% 30.06 in 10.0 mi Calm Calm - N/A   Scattered Clouds
10:55 AM 79.2 °F - 74.8 °F 87% 30.06 in 10.0 mi Variable 4.6 mph - N/A   Clear
11:55 AM 84.0 °F 88.1 °F 69.8 °F 62% 30.06 in 10.0 mi North 5.8 mph - N/A   Scattered Clouds
12:55 PM 85.6 °F 89.4 °F 68.9 °F 57% 30.05 in 10.0 mi NNW 6.9 mph - N/A   Partly Cloudy
1:55 PM 85.1 °F 87.7 °F 66.6 °F 54% 30.04 in 10.0 mi Variable 3.5 mph - N/A   Partly Cloudy
2:55 PM 86.4 °F 89.0 °F 66.9 °F 52% 30.01 in 10.0 mi NE 5.8 mph - N/A   Mostly Cloudy
3:55 PM 87.3 °F 89.2 °F 65.3 °F 48% 29.99 in 10.0 mi Variable 4.6 mph - N/A   Clear
4:55 PM 88.2 °F 90.3 °F 65.3 °F 47% 29.98 in 10.0 mi SW 3.5 mph - N/A   Clear
5:55 PM 86.5 °F 88.1 °F 64.9 °F 48% 29.99 in 10.0 mi WNW 3.5 mph - N/A   Clear
6:55 PM 85.8 °F 87.6 °F 64.9 °F 50% 30.00 in 10.0 mi WSW 3.5 mph - N/A   Clear
7:55 PM 77.5 °F - 68.0 °F 72% 30.00 in 10.0 mi Calm Calm - N/A   Clear
8:55 PM 75.0 °F - 68.9 °F 81% 30.01 in 10.0 mi Calm Calm - N/A   Clear
9:55 PM 74.3 °F - 68.4 °F 82% 30.04 in 10.0 mi Calm Calm - N/A   Clear
10:55 PM 73.9 °F - 69.3 °F 85% 30.04 in 10.0 mi Calm Calm - N/A   Clear
11:55 PM 73.0 °F - 68.0 °F 84% 30.05 in 10.0 mi Calm Calm - N/A   Clear